Location: Unspecified
(0.0000°N, 0.0000°E)
Time: 10:34:16
(UTC+02:00)

Coronas F rocket - Visible Passes

Search period start: 05 May 2016 00:00
Search period end: 15 May 2016 00:00
Orbit: 328 x 338 km, 82.5° (Epoch: 04 May)

Date Brightness Start Highest point End Pass type
(mag) Time Alt. Az. Time Alt. Az. Time Alt. Az.
05 May 1.5 20:57:47 10° N 21:00:31 72° W 21:03:03 12° S visible
06 May 4.5 21:18:46 10° NW 21:20:37 16° W 21:22:28 10° SW visible
08 May 1.2 20:26:18 10° N 20:29:03 76° E 20:31:48 10° S visible
09 May 4.1 20:46:47 10° NW 20:49:01 22° W 20:51:15 10° SSW visible
12 May 5.1 07:20:50 10° ESE 07:21:20 10° E 07:21:50 10° E visible
